Toluca Jose Maria, Mexico

2:11 AM CDT on June 28, 2017 (GMT -0500)
Lic Adolfo Lopez Mateos International

Weather History for MMTO - October, 2012

Change the Weather History Date:

Tuesday, October 9, 2012

  Actual Average Record
Temperature  
Mean Temperature 58 °F -  
Max Temperature 71 °F 67 °F 73 °F (2001)
Min Temperature 46 °F 46 °F 41 °F (2007)
Degree Days  
Heating Degree Days 6    
Growing Degree Days 8 (Base 50)    
Moisture  
Dew Point 46 °F    
Average Humidity 70    
Maximum Humidity 88    
Minimum Humidity 33    
Precipitation  
Precipitation 0.00 in - - ()
Sea Level Pressure  
Sea Level Pressure 30.23 in    
Wind  
Wind Speed 4 mph ()    
Max Wind Speed 13 mph    
Max Gust Speed -    
Visibility 7.2 miles    
Events Rain , Thunderstorm    
Averages and records for this station are not official NWS values.
T = Trace of Precipitation, MM = Missing Value Source: Averaged Metar Reports

Daily Weather History Graph

Daily Weather History Graph

Search for Another Location

Airport or City:

Trip Planner

Search our weather history database for the weather conditions in past years. The results will help you decide how hot, cold, wet, or windy it might be!

Date:

Astronomy

Oct. 09, 2012 Rise Set
Actual Time 7:31 AM CDT 7:19 PM CDT
Civil Twilight 7:09 AM CDT 7:41 PM CDT
Nautical Twilight 6:43 AM CDT 8:06 PM CDT
Astronomical Twilight 6:18 AM CDT 8:32 PM CDT
Moon 1:56 AM CDT (10/9) 3:05 PM CDT (10/9)
Length of Visible Light 12h 32m
Length of Day
11h 48m
Last Quarter, 36% of the Moon is Illuminated
Oct 9
Last Quarter
Oct 15
New
Oct 21
First Quarter
Oct 29
Full
Nov 6
Last Quarter

Hourly Weather History & Observations

Time (CDT) Temp. Dew Point Humidity Pressure Visibility Wind Dir Wind Speed Gust Speed Precip Events Conditions
12:45 AM 53.6 °F 46.4 °F 77% 29.88 in 8.0 mi East 3.5 mph - N/A   Scattered Clouds
1:45 AM 53.6 °F 48.2 °F 82% 30.41 in 8.0 mi Calm Calm - N/A   Scattered Clouds
2:45 AM 50.0 °F 46.4 °F 87% 30.40 in 8.0 mi ENE 5.8 mph - N/A   Scattered Clouds
3:45 AM 48.2 °F 44.6 °F 87% 29.86 in 8.0 mi East 3.5 mph - N/A   Scattered Clouds
4:45 AM 50.0 °F 44.6 °F 82% 30.39 in 8.0 mi Calm Calm - N/A   Partly Cloudy
5:45 AM 48.2 °F 44.6 °F 87% 30.40 in 8.0 mi Calm Calm - N/A   Scattered Clouds
6:45 AM 48.2 °F 44.6 °F 87% 29.90 in 8.0 mi Calm Calm - N/A   Scattered Clouds
7:45 AM 46.4 °F 42.8 °F 87% 30.41 in 7.0 mi Calm Calm - N/A   Mostly Cloudy
8:45 AM 50.0 °F 46.4 °F 87% 30.44 in 7.0 mi Calm Calm - N/A   Mostly Cloudy
9:45 AM 51.8 °F 46.4 °F 82% 29.95 in 7.0 mi WNW 3.5 mph - N/A   Mostly Cloudy
10:45 AM 60.8 °F 50.0 °F 68% 30.46 in 7.0 mi Calm Calm - N/A   Mostly Cloudy
11:45 AM 66.2 °F 46.4 °F 49% 30.45 in 7.0 mi East 11.5 mph - N/A   Mostly Cloudy
12:45 PM 66.2 °F 44.6 °F 46% 29.83 in 10.0 mi ENE 6.9 mph - N/A   Mostly Cloudy
1:45 PM 68.0 °F 44.6 °F 43% 30.38 in 10.0 mi NNE 6.9 mph - N/A   Mostly Cloudy
2:45 PM 69.8 °F 42.8 °F 38% 30.35 in 10.0 mi ENE 12.7 mph - N/A   Mostly Cloudy
3:45 PM 71.6 °F 41.0 °F 33% 29.75 in 10.0 mi East 8.1 mph - N/A   Mostly Cloudy
4:45 PM 69.8 °F 42.8 °F 38% 30.30 in 10.0 mi East 8.1 mph - N/A   Mostly Cloudy
5:45 PM 66.2 °F 46.4 °F 49% 30.30 in 10.0 mi ENE 8.1 mph - N/A   Mostly Cloudy
6:45 PM 64.4 °F 50.0 °F 59% 29.80 in 3.0 mi SE 11.5 mph - N/A Rain , Thunderstorm Light Thunderstorms and Rain
7:45 PM 57.2 °F 50.0 °F 77% 30.38 in 5.0 mi SSE 11.5 mph - N/A Thunderstorm Thunderstorm
8:45 PM 57.2 °F 48.2 °F 72% 30.40 in 7.0 mi SSE 11.5 mph - N/A Thunderstorm Thunderstorm
8:52 PM 55.4 °F 48.2 °F 77% 30.42 in 3.0 mi SSE 11.5 mph - N/A Rain , Thunderstorm Thunderstorms and Rain
9:45 PM 53.6 °F 50.0 °F 88% 29.95 in 3.0 mi South 3.5 mph - N/A Rain Rain
10:45 PM 53.6 °F 50.0 °F 88% 30.43 in 3.0 mi Calm Calm - N/A   Haze
11:45 PM 51.8 °F 48.2 °F 88% 30.43 in 4.0 mi North - - N/A   Mostly Cloudy